Flag for Vietnam Weather past 2 weeks in Hanoi, Vietnam

Now
55 °F

Fog.


Feels Like: 55 °F
Forecast: 59 / 70 °F
Wind: 5 mph from Northeast

Location: Ha Noi Airport

Current Time: Dec 21, 2014 at 5:49:21 AM

Latest Report: Dec 21, 2014 at 4:30 AM


Visibility: 1 mi

Pressure: 30.09 "Hg

Humidity: 88%

Dew point: 52 °F

Location of HanoiLocation

Historic Weather in Hanoi — Graph

°F

Hanoi temperature yesterday

Maximum temperature yesterday: 72 °F (at 1:30 PM)
Minimum temperature yesterday: 50 °F (at 2:30 AM)
Average temperature yesterday: 60 °F

Past Weeks' High & Low Weather Summary

 TemperatureHumidityPressure
High72 °F (Dec 8, 1:30 PM)100% (Dec 7, 1:30 AM)30.45 "Hg (Dec 7, 1:30 AM)
Low48 °F (Dec 18, 4:30 AM)19% (Dec 18, 2:00 PM)29.98 "Hg (Dec 6, 3:30 PM)
Average62 °F64%30.19 "Hg
* Reported Dec 6 4:00 AM — Dec 21 4:30 AM, Hanoi, Weather by CustomWeather, © 2014

Note: Actual official high and low records may vary slightly from our data, if they occured in-between our weather recording intervals... More about our weather records

Advertising

Hanoi weather history for previous 24 hours

 ConditionsComfort  
Time TempWeatherWind HumidityBarometerVisibility
4:30 AM
Dec 21
55 °FFog.5 mph88%30.09 "Hg1 mi
4:00 AM55 °FFog.5 mph88%30.09 "Hg2 mi
3:30 AM55 °FFog.6 mph88%30.09 "Hg2 mi
3:00 AM54 °FFog.5 mph88%30.09 "Hg2 mi
2:30 AM55 °FFog.5 mph88%30.09 "Hg2 mi
2:00 AM55 °FFog.6 mph88%30.09 "Hg2 mi
1:30 AM57 °FFog.5 mph82%30.09 "Hg2 mi
1:00 AM55 °FFog.6 mph82%30.09 "Hg2 mi
12:30 AM57 °FFog.6 mph82%30.09 "Hg1 mi
12:00 AM55 °FFog.5 mph82%30.09 "Hg2 mi
11:30 PM
Dec 20
57 °FFog.6 mph82%30.09 "Hg2 mi
11:00 PM57 °FFog.5 mph82%30.09 "Hg3 mi
10:30 PM57 °FFog.6 mph82%30.09 "Hg3 mi
10:00 PM59 °FClear.6 mph72%30.09 "Hg4 mi
9:30 PM61 °FClear.8 mph68%30.07 "Hg4 mi
9:00 PM61 °FClear.8 mph68%30.07 "Hg4 mi
8:30 PM63 °FClear.10 mph64%30.07 "Hg4 mi
8:00 PM63 °FClear.7 mph56%30.04 "Hg3 mi
7:30 PM63 °FClear.6 mph56%30.04 "Hg3 mi
7:00 PM63 °FClear.3 mph56%30.04 "Hg3 mi
6:30 PM64 °FClear.6 mph46%30.04 "Hg4 mi
6:00 PM66 °FClear.6 mph43%30.01 "Hg5 mi
5:30 PM66 °FClear.6 mph46%30.04 "Hg4 mi
5:00 PM68 °FClear.6 mph40%30.04 "Hg6 mi
4:30 PM70 °FSunny.6 mph38%30.04 "Hg10 mi
4:00 PM70 °FSunny.5 mph38%30.04 "Hg10 mi
3:30 PM72 °FPassing clouds.5 mph36%30.04 "HgN/A
3:00 PM72 °FPassing clouds.5 mph33%30.04 "HgN/A
2:30 PM70 °FPassing clouds.6 mph35%30.04 "HgN/A
2:00 PM72 °FPassing clouds.7 mph33%30.07 "HgN/A
1:30 PM72 °FSunny.3 mph33%30.09 "Hg10 mi
1:00 PM70 °FSunny.2 mph35%30.09 "Hg10 mi
12:30 PM68 °FSunny.5 mph38%30.12 "Hg10 mi
12:00 PM70 °FSunny.3 mph35%30.15 "Hg10 mi
11:00 AM64 °FClear.3 mph49%30.18 "Hg6 mi
10:30 AM64 °FClear.2 mph56%30.21 "Hg5 mi
10:00 AM61 °FClear.2 mph59%30.21 "Hg5 mi
9:30 AM59 °FClear.1 mph63%30.21 "Hg4 mi
9:00 AM57 °FClear.2 mph72%30.21 "Hg4 mi
8:30 AM55 °FClear.1 mph77%30.21 "Hg3 mi
8:00 AM55 °FFog.No wind77%30.21 "Hg2 mi
7:30 AM50 °FFog.3 mph94%30.18 "Hg2 mi
7:00 AM50 °FFog.2 mph94%30.18 "Hg2 mi
6:30 AM50 °FFog.2 mph94%30.18 "Hg2 mi
6:00 AM50 °FFog.2 mph88%30.18 "Hg2 mi
5:30 AM50 °FFog.2 mph88%30.15 "Hg3 mi
5:00 AM50 °FFog.3 mph88%30.15 "Hg2 mi
Weather by CustomWeather, © 2014

See weather overviewHow to use our weather pages